Simultaneous Nadir Overpasses (SNOs) Predictions

Prediction of SNOs between METOP-A and NOAA-19 Satellite Orbit:

Table of predicted SNOs for the next 14.0 days since TLE Epoch: 4/24/2015
Index Date (METOP-A) Time (METOP-A) Lat,Lon (METOP-A) SZA (METOP-A ) Date (NOAA-19) Time (NOAA-19) Lat,Lon (NOAA-19) SZA (NOAA-19 ) Distance(km) Time Diff (sec)
1 04/25/2015 04:13:29 74.92, 113.48 61.78 04/25/2015 04:12:15 74.93, 113.28 61.80 5.77 74
2 04/25/2015 05:04:12 -74.86, -79.35 118.29 04/25/2015 05:03:19 -74.86, -79.31 118.28 1.35 53
3 04/25/2015 05:54:52 74.85, 87.94 61.69 04/25/2015 05:54:16 74.84, 88.01 61.69 2.27 36
4 04/25/2015 06:45:34 -74.84,-104.76 118.33 04/25/2015 06:45:21 -74.83,-104.71 118.34 1.98 13
5 04/25/2015 07:36:14 74.82, 62.53 61.65 04/25/2015 07:36:18 74.81, 62.61 61.63 2.93 4
6 04/25/2015 08:26:56 -74.82,-130.16 118.38 04/25/2015 08:27:23 -74.79,-130.12 118.41 3.06 27
7 04/25/2015 09:17:36 74.80, 37.13 61.60 04/25/2015 09:18:21 74.82, 37.06 61.62 2.67 45
8 04/25/2015 10:08:18 -74.79,-155.57 118.42 04/25/2015 10:09:26 -74.80,-155.67 118.42 3.02 68
9 04/25/2015 10:59:07 74.34, 10.56 61.13 04/25/2015 11:00:15 74.40, 12.72 61.16 65.21 68
10 05/05/2015 15:05:07 -74.92, 130.54 121.43 05/05/2015 15:03:57 -74.92, 130.54 121.43 0.22 70
11 05/05/2015 15:55:47 74.90, -62.18 58.54 05/05/2015 15:54:56 74.91, -62.19 58.56 1.59 51
12 05/05/2015 16:46:29 -74.89, 105.13 121.48 05/05/2015 16:45:59 -74.88, 105.13 121.48 1.17 30
13 05/05/2015 17:37:09 74.88, -87.59 58.50 05/05/2015 17:36:58 74.88, -87.60 58.51 0.68 11
14 05/05/2015 18:27:51 -74.87, 79.72 121.52 05/05/2015 18:28:01 -74.85, 79.72 121.54 2.13 10
15 05/05/2015 19:18:31 74.85,-113.00 58.46 05/05/2015 19:19:00 74.85,-113.01 58.45 0.69 29
16 05/05/2015 20:09:13 -74.84, 54.31 121.56 05/05/2015 20:10:03 -74.82, 54.31 121.59 3.09 50
17 05/05/2015 20:59:53 74.83,-138.40 58.41 05/05/2015 21:01:02 74.81,-138.42 58.39 1.61 69
18 05/05/2015 21:50:48 -74.19, 27.24 122.21 05/05/2015 21:51:53 -74.21, 30.47 122.23 97.78 65




NCC Satellite Simultaneous Nadir Overpasses (
